Location: Artiguedieu
(43.5000°N, 0.5454°E)
Time: 07:23:03
(UTC+00:00)

Courier 1B - Visible Passes

Search period start: 24 July 2021 00:00
Search period end: 03 August 2021 00:00
Orbit: 962 x 1209 km, 28.3° (Epoch: 23 July)

Date Brightness Start Highest point End Pass type
(mag) Time Alt. Az. Time Alt. Az. Time Alt. Az.
24 Jul 9.4 02:53:01 10° S 02:53:01 10° S 02:53:01 10° S visible
24 Jul 9.7 22:05:58 10° SSW 22:06:03 10° SSW 22:06:03 10° SSW visible
25 Jul 9.2 21:12:45 10° SSW 21:16:20 17° S 21:16:20 17° S visible
26 Jul 9.3 20:19:49 10° S 20:23:36 14° SSE 20:26:27 12° SE visible
26 Jul 9.3 22:11:13 10° SW 22:13:22 17° SSW 22:13:22 17° SSW visible
27 Jul 8.9 21:17:40 10° SW 21:23:04 21° S 21:23:17 21° SSE visible
28 Jul 9.1 20:24:16 10° SSW 20:29:27 20° SSE 20:33:04 14° SE visible
28 Jul 9.2 22:16:55 10° SW 22:19:58 20° SSW 22:19:58 20° SSW visible
29 Jul 8.8 21:23:09 10° SW 21:28:59 24° S 21:29:37 24° S visible
30 Jul 9.0 20:29:30 10° SW 20:35:20 23° S 20:39:10 16° SE visible
30 Jul 9.3 22:22:55 10° WSW 22:26:03 19° SW 22:26:03 19° SW visible
31 Jul 8.8 21:28:59 10° SW 21:34:54 24° S 21:35:31 24° S visible
01 Aug 9.0 20:35:10 10° SW 20:41:14 25° S 20:44:56 17° SE visible
01 Aug 9.5 22:29:16 10° WSW 22:31:49 16° SW 22:31:49 16° SW visible
02 Aug 9.1 19:41:27 10° SW 19:47:32 25° S 19:53:30 10° SE visible
02 Aug 9.0 21:35:08 10° WSW 21:40:46 22° SSW 21:41:10 22° S visible
